Location: Galadi
(15.0841°N, 12.6269°W)
Time: 02:15:07
(UTC+00:00)

Daily predictions for brighter satellites

Satellite Brightness Start Highest point End
(mag) Time Altitude Azimuth Time Altitude Azimuth Time Altitude Azimuth
Atlas Centaur 2 4.4 04:26:40 18° NNE 04:26:40 18° NNE 04:28:22 10° NE
H-2A R/B 4.5 04:22:03 12° SE 04:22:45 12° ESE 04:25:09 10° E
SL-16 R/B 3.5 04:24:50 36° ESE 04:24:50 36° ESE 04:28:37 10° SE
SEDSat Delta rocket 4.4 04:47:15 41° E 04:47:15 41° E 04:50:23 10° ENE
CZ-3 R/B 4.0 04:31:55 43° WNW 04:46:47 90° SSW 04:57:42 10° ESE
ADEOS Rocket 3.2 04:46:45 10° SSE 04:52:30 68° ENE 04:54:40 41° N
Cosmos 1709 Rocket 4.1 04:50:51 10° S 04:57:09 75° E 05:03:30 10° N
EPKM 4.1 04:58:36 58° NW 05:00:22 83° NNE 05:31:40 10° ESE
Meteor 2-3 Rocket 4.1 04:59:04 10° S 05:04:39 63° E 05:10:17 10° NNE
Ariane V96 H10-3 4.3 05:06:23 35° SSW 05:07:15 39° SSE 05:17:53 10° E
FENGYUN 3A 3.6 05:03:18 10° NNE 05:08:41 84° ESE 05:14:04 10° S
Cosmos 389 Rocket 3.8 05:12:12 37° SE 05:12:12 37° SE 05:14:33 10° SSE
Cosmos 1606 3.6 05:14:17 40° NE 05:15:00 46° E 05:18:36 10° SSE
Cosmos 773 Rocket 4.1 05:14:56 34° N 05:17:13 72° ENE 05:22:24 10° SSE
USA 276 3.7 05:18:41 35° ESE 05:18:41 35° ESE 05:20:45 10° SE
CZ-3A R/B 3.7 05:18:53 21° NNE 05:18:53 21° NNE 05:23:28 10° ENE
Centaur AC-64 2.8 05:22:09 46° NNE 05:22:09 46° NNE 05:27:22 10° ENE
USA 215 4.4 05:19:43 10° S 05:24:45 24° SW 05:24:57 24° WSW
Cosmos 990 Rocket 3.8 05:20:21 10° SSW 05:25:32 76° WNW 05:30:46 10° N
CZ-4B R/B 4.0 05:27:05 10° ESE 05:29:21 18° ENE 05:31:34 10° NNE
H-2A R/B 1.8 05:30:46 10° S 05:34:56 70° W 05:36:15 41° NNW
deb Chang Zheng 4 3.4 05:36:24 10° N 05:40:42 68° WNW 05:45:00 10° SSW
ALOS 2.7 05:40:46 38° WNW 05:40:58 38° WNW 05:45:16 10° SW
Cosmos 2184 Rocket 4.5 05:38:33 10° S 05:44:42 63° E 05:50:56 10° NNE
SL-8 R/B 3.9 05:44:54 34° WNW 05:46:40 54° SW 05:51:21 10° SSE
ERS-2 3.5 05:44:56 10° SE 05:48:19 39° ENE 05:51:43 10° N
Meteor 2-17 Rocket 4.3 05:42:20 10° S 05:48:20 71° W 05:54:20 10° N
METEOR-M 4.3 05:43:37 10° N 05:48:40 45° WNW 05:53:45 10° SSW
Meteor 1-31 Rocket 3.0 05:48:07 20° NNW 05:50:17 41° WNW 05:53:51 10° SSW
Cosmos 1844 Rocket 2.8 05:45:30 10° SSW 05:50:56 52° WNW 05:56:25 10° N
Delta 7925 Rocket 3.7 05:47:46 13° SW 05:51:51 58° SSE 05:56:55 10° ENE
CZ-3B R/B 3.4 05:53:53 14° NE 05:53:53 14° NE 05:54:19 10° NE
ATLAS 2A CENTAUR R/B 4.2 05:52:39 10° SSW 05:55:46 33° SE 06:04:48 10° ENE
Cosmos 1933 3.2 05:54:26 10° N 05:58:30 77° W 06:02:33 10° S
COSMOS 2455 2.8 05:52:57 10° SSW 05:58:57 85° WNW 06:05:00 10° NNE
CENTAUR R/B 3.5 05:50:56 10° NNW 05:59:43 73° ENE 06:08:25 10° SSE
Cosmos 1151 Rocket 3.0 05:56:46 10° N 06:01:03 82° E 06:05:21 10° S
Cosmos 1782 4.2 05:57:23 10° NNE 06:01:11 40° E 06:04:58 10° SSE
CRYOSAT 2 4.4 05:58:13 10° S 06:03:04 87° E 06:07:55 10° N
Cosmos 1844 3.8 05:59:33 10° SSW 06:04:54 49° WNW 06:10:14 10° N
Cosmos 1500 Rocket 3.6 06:00:44 10° S 06:05:02 82° E 06:09:20 10° N
SL-16 R/B 3.9 06:06:47 13° W 06:06:52 13° WSW 06:09:16 10° SW
SJ-12 4.3 06:03:50 10° N 06:07:36 38° WNW 06:11:23 10° SW
USA 234 3.5 06:01:40 10° NNE 06:07:52 48° NW 06:14:05 10° WSW
Cosmos 372 Rocket 4.2 06:03:39 10° S 06:08:43 75° ESE 06:13:47 10° NNE
CZ-2C R/B 1.4 06:07:48 21° W 06:09:23 34° NNW 06:12:20 10° NE
Atlas Centaur 2 3.9 06:09:16 12° NW 06:12:51 18° N 06:16:39 10° NE
Meteor PRIRODA 4.1 06:15:25 10° N 06:18:54 39° WNW 06:22:23 10° SSW
Cosmos 1538 Rocket 4.4 06:15:00 10° NNW 06:19:55 42° W 06:24:47 10° S
Cosmos 1328 Rocket 3.6 06:16:56 10° NNW 06:21:17 61° W 06:25:39 10° S
ATLAS 5 CENTAUR R/B 1.2 06:18:20 10° SSW 06:22:17 82° WNW 06:26:14 10° NNE
H-2A R/B 2.6 06:19:31 10° N 06:23:20 72° WNW 06:27:08 10° SSW
GPS 2-17 Rocket1 3.9 06:19:08 10° SW 06:23:23 45° SSE 06:27:34 10° E
Sich 1 4.4 06:21:35 10° SSE 06:25:45 43° E 06:29:57 10° NNE
Meteor 1-4 Rocket 2.6 06:23:23 10° NNW 06:26:43 48° W 06:30:04 10° S
Cosmos 1743 Rocket 3.9 06:24:45 10° SSW 06:28:55 43° W 06:33:08 10° NNW
Okean O Rocket 3.9 06:25:48 10° NE 06:29:42 30° E 06:33:36 10° SSE
ATLAS 2A CENTAUR R/B 3.7 06:24:49 10° W 06:30:08 59° N 06:55:00 10° ENE
SEDSat Delta rocket 4.2 06:27:40 10° W 06:31:51 26° NNW 06:35:37 10° NE
COSMO-SKYMED 1 2.5 06:29:58 10° S 06:34:16 73° WSW 06:38:35 10° NNW
Intelsat 5-1 Rocket 2.4 06:32:02 10° W 06:35:12 57° N 06:42:38 10° ENE
Delta 2 Rocket 3.8 06:29:10 10° WSW 06:35:24 74° NNW 06:41:24 10° ENE
